Oscoda, MI

8:25 AM EDT on October 15, 2019 (GMT -0400)
Oscoda-Wurtsmith

Weather History for KOSC - August, 2019

Change the Weather History Date:

Tuesday, August 27, 2019

  Actual Average Record
Temperature  
Mean Temperature 72 °F -  
Max Temperature 83 °F 73 °F 87 °F (2004)
Min Temperature 61 °F 54 °F 42 °F (2008)
Cooling Degree Days 7    
Growing Degree Days 22 (Base 50)    
Moisture  
Dew Point 63 °F    
Average Humidity 75    
Maximum Humidity 100    
Minimum Humidity 40    
Precipitation  
Precipitation 0.03 in - - ()
Sea Level Pressure  
Sea Level Pressure 29.72 in    
Wind  
Wind Speed 14 mph (SW)    
Max Wind Speed 18 mph    
Max Gust Speed 29 mph    
Visibility 10 miles    
Events Rain    
Averages and records for this station are not official NWS values.
T = Trace of Precipitation, MM = Missing Value Source: NWS Daily Summary

Daily Weather History Graph

Daily Weather History Graph

Search for Another Location

Airport or City:

Astronomy

Aug. 27, 2019 Rise Set
Actual Time 6:50 AM EDT 8:19 PM EDT
Civil Twilight 6:19 AM EDT 8:49 PM EDT
Nautical Twilight 5:42 AM EDT 9:26 PM EDT
Astronomical Twilight 5:03 AM EDT 10:05 PM EDT
Moon 3:04 AM EDT (8/27) 6:47 PM EDT (8/27)
Length of Visible Light 14h 29m
Length of Day
13h 29m
Waning Crescent, 11% of the Moon is Illuminated
Aug 27
Waning Crescent
Aug 30
New
Sep 5
First Quarter
Sep 14
Full
Sep 21
Last Quarter

Hourly Weather History & Observations

Time (EDT) Temp. Heat Index Dew Point Humidity Pressure Visibility Wind Dir Wind Speed Gust Speed Precip Events Conditions
12:15 AM 66.6 °F - 65.7 °F 97% 29.79 in 10.0 mi SSE 15.0 mph 24.2 mph N/A   Overcast
12:16 AM 66.6 °F - 65.7 °F 97% 29.79 in 10.0 mi South 16.1 mph 24.2 mph N/A   Overcast
12:35 AM 66.6 °F - 65.7 °F 97% 29.78 in 10.0 mi SSE 15.0 mph 24.2 mph N/A   Overcast
12:59 AM 66.7 °F - 65.3 °F 95% 29.77 in 10.0 mi SSE 16.1 mph 24.2 mph N/A   Overcast
1:17 AM 66.9 °F - 65.3 °F 95% 29.76 in 10.0 mi SSE 18.4 mph 27.6 mph N/A   Overcast
1:35 AM 66.9 °F - 65.3 °F 95% 29.75 in 10.0 mi SSE 18.4 mph 25.3 mph N/A   Overcast
1:36 AM 67.1 °F - 65.3 °F 94% 29.75 in 10.0 mi South 15.0 mph 25.3 mph N/A   Overcast
1:55 AM 67.1 °F - 65.3 °F 94% 29.74 in 10.0 mi South 16.1 mph 25.3 mph N/A   Overcast
2:15 AM 66.7 °F - 66.4 °F 99% 29.73 in 7.0 mi SSE 13.8 mph 24.2 mph 0.01 in Rain Rain
2:38 AM 67.1 °F - 66.6 °F 98% 29.71 in 10.0 mi South 16.1 mph 21.9 mph 0.01 in   Overcast
2:56 AM 67.3 °F - 66.9 °F 99% 29.70 in 10.0 mi SSE 15.0 mph 21.9 mph 0.01 in Rain Rain
3:15 AM 67.3 °F - 67.3 °F 100% 29.69 in 10.0 mi South 13.8 mph 23.0 mph N/A Rain Light Rain
3:35 AM 67.5 °F - 67.5 °F 100% 29.68 in 10.0 mi South 12.7 mph 20.7 mph 0.01 in   Light Drizzle
3:59 AM 68.2 °F - 68.2 °F 100% 29.67 in 10.0 mi South 15.0 mph 28.8 mph 0.01 in   Overcast
4:17 AM 68.2 °F - 68.2 °F 100% 29.67 in 10.0 mi South 16.1 mph 23.0 mph N/A   Light Drizzle
4:35 AM 68.4 °F - 68.4 °F 100% 29.66 in 7.0 mi South 16.1 mph 25.3 mph N/A Rain Light Rain
4:55 AM 68.9 °F - 68.9 °F 100% 29.66 in 7.0 mi South 13.8 mph 20.7 mph N/A Rain Light Rain
5:15 AM 69.4 °F - 69.4 °F 100% 29.66 in 10.0 mi South 15.0 mph 21.9 mph N/A   Overcast
5:19 AM 69.4 °F - 69.4 °F 100% 29.66 in 10.0 mi South 13.8 mph 21.9 mph N/A   Overcast
5:37 AM 69.4 °F - 69.4 °F 100% 29.66 in 5.0 mi South 13.8 mph 20.7 mph N/A   Drizzle
5:55 AM 69.8 °F - 69.8 °F 100% 29.66 in 10.0 mi SSW 12.7 mph 18.4 mph N/A   Overcast
6:15 AM 70.0 °F - 70.0 °F 100% 29.66 in 10.0 mi SSW 10.4 mph 20.7 mph N/A   Overcast
6:35 AM 70.2 °F - 70.2 °F 100% 29.67 in 7.0 mi SSW 13.8 mph - N/A   Light Drizzle
6:40 AM 70.2 °F - 70.2 °F 100% 29.67 in 10.0 mi SSW 15.0 mph - N/A   Overcast
6:58 AM 70.2 °F - 70.2 °F 100% 29.67 in 10.0 mi SSW 12.7 mph - N/A   Overcast
7:16 AM 70.2 °F - 70.2 °F 100% 29.68 in 10.0 mi SSW 11.5 mph 17.3 mph N/A   Overcast
7:35 AM 70.5 °F - 70.5 °F 100% 29.68 in 3.0 mi SSW 10.4 mph - N/A Rain Heavy Rain
7:55 AM 70.5 °F - 70.5 °F 100% 29.68 in 5.0 mi SSW 11.5 mph - 0.01 in   Overcast
7:56 AM 70.5 °F - 70.5 °F 100% 29.68 in 7.0 mi SSW 11.5 mph - 0.01 in   Overcast
8:19 AM 70.7 °F - 70.7 °F 100% 29.69 in 10.0 mi SW 8.1 mph - N/A   Overcast
8:37 AM 70.5 °F - 70.5 °F 100% 29.69 in 10.0 mi SW 10.4 mph - N/A   Overcast
8:55 AM 71.2 °F - 71.1 °F 99% 29.69 in 10.0 mi SW 11.5 mph - N/A   Overcast
9:15 AM 72.1 °F - 71.1 °F 96% 29.69 in 10.0 mi SW 10.4 mph 17.3 mph N/A   Overcast
9:16 AM 72.3 °F - 71.1 °F 96% 29.69 in 10.0 mi SW 12.7 mph - N/A   Overcast
9:35 AM 72.5 °F - 69.3 °F 90% 29.69 in 10.0 mi SW 9.2 mph - N/A   Mostly Cloudy
9:57 AM 73.9 °F - 68.9 °F 84% 29.69 in 10.0 mi SW 11.5 mph - N/A   Mostly Cloudy
10:16 AM 73.8 °F - 67.5 °F 81% 29.70 in 10.0 mi WSW 13.8 mph 20.7 mph N/A   Mostly Cloudy
10:35 AM 75.9 °F - 67.5 °F 75% 29.70 in 10.0 mi SW 13.8 mph 18.4 mph N/A   Overcast
10:36 AM 75.7 °F - 67.3 °F 75% 29.70 in 10.0 mi SW 12.7 mph - N/A   Overcast
10:55 AM 75.2 °F - 66.7 °F 75% 29.70 in 10.0 mi SW 11.5 mph - N/A   Mostly Cloudy
11:19 AM 76.1 °F - 66.9 °F 73% 29.71 in 10.0 mi WSW 15.0 mph 19.6 mph N/A   Overcast
11:37 AM 76.8 °F - 66.0 °F 69% 29.71 in 10.0 mi SW 15.0 mph 21.9 mph N/A   Mostly Cloudy
11:55 AM 75.6 °F - 65.3 °F 70% 29.72 in 10.0 mi WSW 18.4 mph - N/A   Mostly Cloudy
11:56 AM 75.4 °F - 65.1 °F 70% 29.72 in 10.0 mi WSW 17.3 mph 20.7 mph N/A   Mostly Cloudy
12:15 PM 77.9 °F - 65.1 °F 65% 29.71 in 10.0 mi WSW 15.0 mph 23.0 mph N/A   Overcast
12:16 PM 77.9 °F - 65.1 °F 65% 29.71 in 10.0 mi West 15.0 mph 23.0 mph N/A   Overcast
12:35 PM 78.3 °F - 64.2 °F 62% 29.71 in 10.0 mi WSW 15.0 mph 24.2 mph N/A   Mostly Cloudy
12:58 PM 79.7 °F - 63.1 °F 57% 29.71 in 10.0 mi SW 17.3 mph 21.9 mph N/A   Mostly Cloudy
1:16 PM 80.6 °F 81.9 °F 63.1 °F 55% 29.70 in 10.0 mi SW 16.1 mph 21.9 mph N/A   Mostly Cloudy
1:35 PM 81.1 °F 82.1 °F 62.2 °F 52% 29.70 in 10.0 mi WSW 15.0 mph 21.9 mph N/A   Mostly Cloudy
1:36 PM 80.8 °F 81.9 °F 62.2 °F 53% 29.70 in 10.0 mi SW 15.0 mph 21.9 mph N/A   Mostly Cloudy
1:55 PM 79.3 °F - 61.9 °F 55% 29.70 in 10.0 mi WSW 16.1 mph 20.7 mph N/A   Mostly Cloudy
2:19 PM 80.2 °F 81.1 °F 60.6 °F 51% 29.70 in 10.0 mi WSW 17.3 mph 21.9 mph N/A   Mostly Cloudy
2:37 PM 82.6 °F 83.1 °F 61.2 °F 48% 29.70 in 10.0 mi WSW 15.0 mph - N/A   Scattered Clouds
2:55 PM 82.8 °F 83.0 °F 59.9 °F 46% 29.70 in 10.0 mi WSW 16.1 mph 24.2 mph N/A   Scattered Clouds
2:56 PM 82.6 °F 82.8 °F 60.1 °F 46% 29.70 in 10.0 mi SW 15.0 mph 24.2 mph N/A   Scattered Clouds
3:15 PM 83.7 °F 83.8 °F 60.4 °F 45% 29.71 in 10.0 mi WSW 13.8 mph 20.7 mph N/A   Scattered Clouds
3:35 PM 83.5 °F 82.8 °F 57.0 °F 40% 29.71 in 10.0 mi West 18.4 mph 25.3 mph N/A   Scattered Clouds
3:58 PM 82.6 °F 82.3 °F 57.7 °F 43% 29.71 in 10.0 mi WSW 15.0 mph 26.5 mph N/A   Scattered Clouds
4:16 PM 83.3 °F 82.9 °F 58.1 °F 42% 29.71 in 10.0 mi SW 18.4 mph 21.9 mph N/A   Scattered Clouds
4:35 PM 82.6 °F 82.5 °F 58.5 °F 44% 29.71 in 10.0 mi SW 12.7 mph - N/A   Scattered Clouds
4:55 PM 81.1 °F 81.4 °F 58.8 °F 46% 29.71 in 10.0 mi SW 11.5 mph - N/A   Scattered Clouds
5:19 PM 82.0 °F 82.1 °F 59.0 °F 45% 29.71 in 10.0 mi SW 11.5 mph 18.4 mph N/A   Scattered Clouds
5:37 PM 79.7 °F - 57.0 °F 46% 29.72 in 10.0 mi WSW 13.8 mph 23.0 mph N/A   Scattered Clouds
5:55 PM 82.0 °F 81.6 °F 56.3 °F 41% 29.72 in 10.0 mi WSW 16.1 mph 24.2 mph N/A   Scattered Clouds
6:15 PM 81.3 °F 81.1 °F 55.9 °F 42% 29.72 in 10.0 mi WSW 9.2 mph - N/A   Scattered Clouds
6:35 PM 80.6 °F 80.5 °F 55.4 °F 42% 29.72 in 10.0 mi SW 12.7 mph - N/A   Clear
6:58 PM 80.1 °F 80.2 °F 55.6 °F 43% 29.73 in 10.0 mi WSW 12.7 mph 16.1 mph N/A   Scattered Clouds
7:16 PM 78.8 °F - 55.0 °F 44% 29.73 in 10.0 mi WSW 11.5 mph 17.3 mph N/A   Scattered Clouds
7:35 PM 76.8 °F - 54.5 °F 46% 29.74 in 10.0 mi WSW 9.2 mph - N/A   Clear
7:55 PM 74.5 °F - 54.9 °F 50% 29.74 in 10.0 mi WSW 9.2 mph - N/A   Clear
7:56 PM 74.5 °F - 54.9 °F 50% 29.74 in 10.0 mi WSW 9.2 mph - N/A   Clear
8:19 PM 71.2 °F - 55.2 °F 57% 29.75 in 10.0 mi SW 6.9 mph - N/A   Clear
8:37 PM 70.2 °F - 55.6 °F 60% 29.76 in 10.0 mi SW 5.8 mph - N/A   Clear
8:55 PM 67.3 °F - 55.4 °F 66% 29.77 in 10.0 mi SW 6.9 mph - N/A   Clear
9:15 PM 67.6 °F - 55.6 °F 65% 29.78 in 10.0 mi SW 5.8 mph - N/A   Clear
9:16 PM 67.6 °F - 55.6 °F 65% 29.78 in 10.0 mi SW 6.9 mph - N/A   Clear
9:35 PM 69.3 °F - 55.8 °F 62% 29.78 in 10.0 mi SSW 5.8 mph - N/A   Clear
9:40 PM 68.7 °F - 55.6 °F 63% 29.78 in 10.0 mi SSW 4.6 mph - N/A   Clear
9:57 PM 64.8 °F - 56.3 °F 74% 29.78 in 10.0 mi SW 6.9 mph - N/A   Clear
10:16 PM 64.8 °F - 55.9 °F 73% 29.78 in 10.0 mi SW 6.9 mph - N/A   Clear
10:35 PM 61.7 °F - 54.5 °F 77% 29.78 in 10.0 mi WSW 6.9 mph - N/A   Clear
10:36 PM 61.5 °F - 54.7 °F 78% 29.78 in 10.0 mi WSW 6.9 mph - N/A   Clear
10:55 PM 62.1 °F - 55.4 °F 79% 29.78 in 10.0 mi SW 5.8 mph - N/A   Clear
11:19 PM 63.0 °F - 55.4 °F 76% 29.78 in 10.0 mi SW 5.8 mph - N/A   Clear
11:37 PM 63.1 °F - 55.0 °F 75% 29.78 in 10.0 mi SW 8.1 mph - N/A   Scattered Clouds
11:55 PM 61.0 °F - 54.5 °F 79% 29.78 in 10.0 mi WSW 9.2 mph - N/A   Scattered Clouds
11:56 PM 61.0 °F - 54.5 °F 79% 29.78 in 10.0 mi WSW 9.2 mph - N/A   Scattered Clouds